EW4556 Weather Reports


Display with metric or nautical units.
time (UTC)temp
F
wind
direction
speed
MPH
gust
MPH
rain 1hr
in
rain 24hr
in
rain mn
in
humidity
%
barometer
mb
20260503033125 41 189 0.0 0.0 0.00 0.00 0.00 67 1010.4
20260503031559 41 189 0.0 0.0 0.00 0.00 0.00 66 1010.4
20260503030057 41 189 0.0 0.0 0.00 0.00 0.00 68 1010.4
20260503024607 41 189 0.0 0.0 0.00 0.00 0.00 64 1010.5
20260503023049 41 189 0.0 2.0 0.00 0.00 0.00 63 1010.5
20260503021555 42 253 0.0 0.0 0.00 0.00 0.00 63 1010.7
20260503020049 42 253 0.0 0.0 0.00 0.00 0.00 64 1010.7
20260503014545 42 253 0.0 1.0 0.00 0.00 0.00 60 1010.5
20260503013045 43 253 0.0 0.0 0.00 0.00 0.00 59 1010.5
20260503011546 44 253 0.0 1.0 0.00 0.00 0.00 58 1010.4
20260503010041 44 254 0.0 0.0 0.00 0.00 0.00 56 1010.3
20260503004544 45 254 0.0 0.0 0.00 0.00 0.00 56 1010.0
20260503003040 45 196 0.0 0.0 0.00 0.00 0.00 55 1009.9
20260503001543 46 196 0.0 0.0 0.00 0.00 0.00 53 1009.7
20260503000014 47 196 0.0 0.0 0.00 0.00 0.00 53 1009.6
20260502234509 48 196 0.0 0.0 0.00 0.00 0.00 53 1009.7
20260502233053 48 196 0.0 1.0 0.00 0.00 0.00 52 1009.6
20260502231556 49 196 0.0 1.0 0.00 0.00 0.00 44 1009.5
20260502230035 50 196 0.0 2.0 0.00 0.00 0.00 49 1009.5
20260502224535 50 277 0.0 1.0 0.00 0.00 0.00 46 1009.2
20260502223038 50 281 0.0 2.0 0.00 0.00 0.00 45 1009.1
20260502221534 51 53 0.0 1.0 0.00 0.00 0.00 45 1009.1
20260502220038 51 163 0.0 1.0 0.00 0.00 0.00 43 1009.1
20260502214530 52 59 0.0 1.0 0.00 0.00 0.00 45 1009.0
20260502213030 54 53 1.0 5.0 0.00 0.00 0.00 41 1008.9
20260502211540 53 59 0.0 3.0 0.00 0.00 0.00 44 1008.8
20260502210026 53 101 0.0 2.0 0.00 0.00 0.00 39 1008.7
20260502204525 55 299 0.0 6.0 0.00 0.00 0.00 41 1008.9
20260502203024 55 277 0.0 5.0 0.00 0.00 0.00 42 1009.0
20260502201522 54 263 0.0 6.0 0.00 0.00 0.00 43 1009.0
20260502200021 55 345 0.0 7.0 0.00 0.00 0.00 40 1009.1
20260502194520 55 240 0.0 2.0 0.00 0.00 0.00 41 1009.3
20260502193023 53 255 0.0 2.0 0.00 0.00 0.00 44 1009.4
20260502191523 53 246 0.0 1.0 0.00 0.00 0.00 44 1009.6
20260502190051 54 213 0.0 4.0 0.00 0.00 0.00 46 1009.7
20260502184547 54 222 0.0 2.0 0.00 0.00 0.00 45 1009.7
20260502183016 53 65 0.0 0.0 0.00 0.00 0.00 49 1009.9
20260502181515 52 355 0.0 2.0 0.00 0.00 0.00 44 1009.8
20260502163005 53 104 0.0 8.0 0.00 0.00 0.00 47 1010.1
20260502161501 53 250 0.0 1.0 0.00 0.00 0.00 51 1010.1
20260502160104 52 257 0.0 4.0 0.00 0.00 0.00 51 1010.4
20260502151559 51 179 0.0 4.0 0.00 0.00 0.00 59 1010.4
20260502123056 42 112 0.0 1.0 0.00 0.00 0.00 90 1010.7
20260502121534 42 134 0.0 1.0 0.00 0.00 0.00 90 1010.7
20260502114559 41 286 0.0 1.0 0.00 0.00 0.00 94 1010.7
20260502113051 40 202 0.0 0.0 0.00 0.00 0.00 94 1011.0
20260502111551 40 238 0.0 2.0 0.00 0.00 0.00 94 1010.7
20260502110047 41 263 0.0 2.0 0.00 0.00 0.00 94 1010.4
20260502104549 41 82 0.0 7.0 0.00 0.00 0.00 94 1010.2
20260502103041 41 194 0.0 1.0 0.00 0.00 0.00 95 1010.0
20260502101538 42 309 0.0 0.0 0.00 0.00 0.00 94 1009.9
20260502091531 43 252 0.0 0.0 0.00 0.00 0.00 95 1009.3
20260502070017 44 252 0.0 0.0 0.00 0.00 0.00 94 1009.4
20260502064515 44 252 0.0 0.0 0.00 0.00 0.00 94 1009.4
20260502063012 44 252 0.0 0.0 0.00 0.00 0.00 94 1009.7
20260502061540 44 252 0.0 0.0 0.00 0.00 0.00 94 1010.0
20260502060038 44 261 0.0 2.0 0.00 0.00 0.00 94 1010.1
20260502054535 44 209 0.0 0.0 0.00 0.00 0.00 94 1010.4
20260502053035 45 252 0.0 0.0 0.00 0.00 0.00 94 1010.3
20260502051552 45 252 0.0 0.0 0.00 0.00 0.00 94 1010.2
20260502050034 44 252 0.0 0.0 0.00 0.00 0.00 94 1010.0
20260502044532 44 252 0.0 0.0 0.00 0.00 0.00 94 1009.9
20260502043030 45 252 0.0 0.0 0.00 0.00 0.00 93 1009.9
20260502041531 45 252 0.0 0.0 0.00 0.00 0.00 93 1010.0
20260502040029 45 252 0.0 0.0 0.00 0.00 0.00 93 1009.9
20260502034559 45 252 0.0 0.0 0.00 0.00 0.00 92 1009.8